Location: Rounton
(54.4000°N, 1.3500°W)
Time: 12:44:24
(UTC+00:00)

Transit 2A - Pass Details

Date: 09 December 2021
Orbit: 591 x 967 km, 66.7° (Epoch: 17 January)

Event Time Altitude Azimuth Distance (km) Brightness Sun altitude
Rises 02:40:24 0° 281° (W) 3,533 - -46.2°
Reaches altitude 10° 02:43:16 10° 293° (WNW) 2,637 - -45.9°
Maximum altitude 02:48:33 28° 351° (N) 1,723 - -45.2°
Exits shadow 02:52:06 18° 36° (NE) 2,212 8.7 -44.7°
Drops below altitude 10° 02:53:58 10° 49° (NE) 2,717 9.4 -44.5°
Sets 02:56:58 0° 61° (ENE) 3,659 10.3 -44.1°
